Oakland, CA

10:10 PM PDT on May 27, 2017 (GMT -0700)
Metro Oakland International

Weather History for KOAK - October, 2012

Change the Weather History Date:

Sunday, October 7, 2012

  Actual Average Record
Temperature  
Mean Temperature 61 °F 62 °F  
Max Temperature 69 °F 71 °F 87 °F (2002)
Min Temperature 52 °F 53 °F 42 °F (2011)
Degree Days  
Heating Degree Days 4 4  
Month to date heating degree days 13 23  
Since 1 July heating degree days 311 223  
Cooling Degree Days 0 1  
Month to date cooling degree days 22 7  
Year to date cooling degree days 50 132  
Growing Degree Days 10 (Base 50)    
Moisture  
Dew Point 53 °F    
Average Humidity 76    
Maximum Humidity 93    
Minimum Humidity 59    
Precipitation  
Precipitation 0.00 in 0.03 in 0.58 in (1973)
Month to date precipitation 0.00 0.14  
Year to date precipitation 11.97 13.64  
Since 1 July precipitation 0.03  
Sea Level Pressure  
Sea Level Pressure 30.00 in    
Wind  
Wind Speed 7 mph (West)    
Max Wind Speed 16 mph    
Max Gust Speed 26 mph    
Visibility 10 miles    
Events      
T = Trace of Precipitation, MM = Missing Value Source: NWS Daily Summary

Daily Weather History Graph

Daily Weather History Graph

Search for Another Location

Airport or City:

Trip Planner

Search our weather history database for the weather conditions in past years. The results will help you decide how hot, cold, wet, or windy it might be!

Date:

Astronomy

Oct. 07, 2012 Rise Set
Actual Time 7:10 AM PDT 6:42 PM PDT
Civil Twilight 6:44 AM PDT 7:08 PM PDT
Nautical Twilight 6:13 AM PDT 7:38 PM PDT
Astronomical Twilight 5:43 AM PDT 8:09 PM PDT
Moon No Moon Rise 1:46 PM PDT (10/7)
Length of Visible Light 12h 24m
Length of Day
11h 31m
Waning Gibbous, 55% of the Moon is Illuminated
Oct 7
Waning Gibbous
Oct 8
Last Quarter
Oct 15
New
Oct 21
First Quarter
Oct 29
Full

Hourly Weather History & Observations

Time (PDT) Temp. Dew Point Humidity Pressure Visibility Wind Dir Wind Speed Gust Speed Precip Events Conditions
12:53 AM 59.0 °F 52.0 °F 78% 30.00 in 10.0 mi WNW 8.1 mph - N/A   Scattered Clouds
1:13 AM 59.0 °F 53.6 °F 82% 30.00 in 10.0 mi West 8.1 mph - N/A   Mostly Cloudy
1:31 AM 59.0 °F 53.6 °F 82% 30.00 in 10.0 mi West 8.1 mph - N/A   Unknown
1:53 AM 59.0 °F 53.1 °F 81% 30.00 in 10.0 mi West 8.1 mph - N/A   Mostly Cloudy
2:53 AM 59.0 °F 53.1 °F 81% 30.00 in 10.0 mi WSW 5.8 mph - N/A   Mostly Cloudy
3:53 AM 59.0 °F 53.1 °F 81% 29.99 in 10.0 mi West 4.6 mph - N/A   Mostly Cloudy
4:53 AM 57.9 °F 52.0 °F 81% 29.99 in 10.0 mi SW 3.5 mph - N/A   Mostly Cloudy
5:53 AM 54.0 °F 52.0 °F 93% 30.00 in 10.0 mi Calm Calm - N/A   Mostly Cloudy
6:18 AM 53.6 °F 50.0 °F 88% 30.00 in 10.0 mi Calm Calm - N/A   Scattered Clouds
6:40 AM 55.4 °F 51.8 °F 88% 30.00 in 10.0 mi Calm Calm - N/A   Mostly Cloudy
6:53 AM 54.0 °F 52.0 °F 93% 30.01 in 10.0 mi Calm Calm - N/A   Mostly Cloudy
7:53 AM 57.9 °F 54.0 °F 87% 30.02 in 10.0 mi SW 3.5 mph - N/A   Mostly Cloudy
8:53 AM 59.0 °F 54.0 °F 83% 30.04 in 10.0 mi South 4.6 mph - N/A   Mostly Cloudy
9:53 AM 60.1 °F 54.0 °F 80% 30.04 in 10.0 mi South 4.6 mph - N/A   Mostly Cloudy
10:53 AM 61.0 °F 54.0 °F 78% 30.03 in 10.0 mi SSW 4.6 mph - N/A   Mostly Cloudy
11:16 AM 62.6 °F 53.6 °F 72% 30.02 in 10.0 mi WSW 4.6 mph - N/A   Scattered Clouds
11:53 AM 63.0 °F 53.1 °F 70% 30.01 in 10.0 mi West 4.6 mph - N/A   Partly Cloudy
12:53 PM 64.0 °F 54.0 °F 70% 30.00 in 10.0 mi West 6.9 mph - N/A   Partly Cloudy
1:53 PM 66.9 °F 54.0 °F 63% 29.98 in 10.0 mi West 5.8 mph - N/A   Scattered Clouds
2:53 PM 68.0 °F 54.0 °F 61% 29.97 in 10.0 mi West 10.4 mph - N/A   Scattered Clouds
3:53 PM 68.0 °F 53.1 °F 59% 29.96 in 10.0 mi West 15.0 mph - N/A   Scattered Clouds
4:53 PM 66.2 °F 53.6 °F 64% 29.96 in 10.0 mi West 15.0 mph - N/A   Scattered Clouds
5:53 PM 64.9 °F 52.0 °F 63% 29.97 in 10.0 mi WNW 12.7 mph - N/A   Scattered Clouds
6:53 PM 63.0 °F 52.0 °F 67% 29.98 in 10.0 mi WNW 6.9 mph - N/A   Scattered Clouds
7:53 PM 61.0 °F 53.1 °F 75% 29.99 in 10.0 mi West 10.4 mph - N/A   Scattered Clouds
8:53 PM 62.1 °F 51.1 °F 67% 30.00 in 10.0 mi West 10.4 mph - N/A   Clear
9:53 PM 60.1 °F 53.1 °F 78% 30.01 in 10.0 mi West 8.1 mph - N/A   Clear
10:53 PM 60.1 °F 52.0 °F 75% 30.01 in 10.0 mi West 10.4 mph - N/A   Partly Cloudy
11:53 PM 60.1 °F 52.0 °F 75% 30.02 in 10.0 mi West 9.2 mph - N/A   Partly Cloudy